Location: Moscow
(55.7500°N, 37.5830°E)
Time: 17:58:22
(UTC+03:00)

ISS - Pass Details

Date: 17 March 2026
Orbit: 416 x 425 km, 51.6° (Epoch: 19 April)

Event Time Altitude Azimuth Distance (km) Brightness Sun altitude
Rises 21:50:27 0° 268° (W) 2,387 0.7 -25.8°
Reaches altitude 10° 21:52:40 10° 259° (W) 1,518 -0.5 -26.0°
Enters shadow 21:53:15 14° 255° (WSW) 1,299 -0.9 -26.1°
